GFSGL_925_rhum_276.txt.gz
RH
74 71 71 76 78 78 74 73 66 63 63 64 70 72 74 75 72 74 73 74 73 74 75 76 73 72 74 76 77 81 77 78 81 68 68 57 64 54 53 52 51 55 57
68 69 75 82 82 79 76 67 62 58 65 65 72 72 74 72 67 73 73 72 69 76 73 74 76 71 68 70 70 76 76 76 79 80 68 62 59 65 57 50 53 60 62
68 70 81 84 79 74 61 58 62 60 67 71 72 73 72 70 68 69 66 66 66 66 74 74 80 77 70 64 62 69 71 70 76 79 80 76 73 71 67 67 59 56 62
67 73 80 79 74 64 59 58 60 65 68 68 70 71 70 70 70 66 67 69 65 62 60 61 64 65 69 68 70 72 73 70 74 79 83 81 83 76 76 72 70 64 67
70 78 78 76 65 58 56 58 61 64 66 69 71 71 70 69 66 68 62 58 69 68 62 60 55 62 69 73 76 72 75 78 82 84 89 91 90 83 83 74 76 72 77
75 76 75 65 60 57 57 59 63 63 68 70 70 69 71 66 66 65 64 55 53 70 67 62 53 51 66 78 74 67 68 82 81 84 92 99 92 86 75 68 64 74 87
72 72 66 65 60 58 57 59 58 64 70 66 70 71 72 72 68 70 67 68 67 56 71 69 63 53 64 71 67 57 51 77 73 78 81 87 90 78 72 68 67 71 75
76 76 67 64 61 60 57 53 59 67 70 72 71 71 71 69 73 74 72 69 70 64 69 62 65 60 49 65 56 47 60 72 70 73 78 80 86 76 74 72 72 82 74
93 94 71 68 66 64 59 61 67 72 72 75 72 72 68 67 71 74 76 73 69 58 59 53 64 61 56 60 61 57 44 44 74 72 70 73 76 76 77 73 77 76 73
90 87 97 73 65 62 58 58 68 73 71 71 71 70 69 66 70 71 70 68 65 46 60 49 39 44 57 61 62 58 44 40 46 66 64 61 58 56 61 70 73 70 70
97 100 96 74 73 67 68 70 72 74 73 72 71 68 68 69 67 65 64 63 47 33 35 31 42 56 61 62 58 54 45 52 56 61 57 54 47 46 50 59 70 68 58
75 100 92 82 79 80 74 76 75 76 76 72 70 70 68 65 66 66 65 57 38 33 30 22 32 46 42 39 41 43 45 55 60 58 56 51 47 64 67 69 71 62 39
94 95 89 86 80 79 80 80 80 76 72 67 69 71 64 62 65 66 69 66 41 39 38 39 31 35 44 44 45 49 51 55 60 61 54 52 41 52 54 54 45 41 39
90 85 86 84 83 83 84 79 73 76 74 74 74 69 64 61 58 61 67 71 51 45 43 42 44 47 45 41 38 44 50 53 51 50 50 50 50 47 46 44 42 41 40
86 75 75 83 81 80 79 76 70 62 63 64 64 66 66 56 48 51 60 68 60 49 47 49 48 47 41 39 37 38 42 52 59 49 50 50 53 53 44 41 42 43 42
78 72 74 72 69 73 78 72 69 67 68 65 57 47 43 41 47 48 49 57 61 56 57 56 53 46 50 48 47 43 40 46 52 55 54 55 54 53 48 44 44 48 50
76 72 80 73 67 64 72 71 73 66 59 61 56 49 48 50 43 47 50 51 53 54 55 54 56 59 56 56 55 54 50 42 43 49 52 45 49 54 54 46 45 47 48
70 65 66 61 61 64 66 79 66 68 67 67 70 68 65 65 59 51 52 54 54 56 56 56 57 66 71 70 71 71 64 59 55 54 53 45 44 49 49 47 46 48 48
64 62 64 66 64 64 67 70 76 78 81 82 79 77 77 77 78 77 71 73 74 74 75 86 97 97 96 98 97 92 86 81 75 68 60 60 62 64 61 55 53 52 53
72 65 63 64 63 60 66 66 69 75 77 77 77 86 86 83 93 96 95 96 98 98 99 100 100 100 99 100 100 99 98 99 99 99 97 96 91 88 90 90 83 75 63
53 70 69 71 74 73 72 72 69 69 79 80 75 67 82 84 93 88 90 88 75 82 72 74 92 85 81 86 99 97 97 99 100 99 100 100 99 100 100 100 90 95 92
33 36 39 41 39 43 50 44 64 69 64 61 63 55 46 45 50 57 52 50 50 56 57 61 70 77 83 84 86 82 82 83 80 80 69 62 71 82 88 98 100 98 98
34 35 37 37 38 38 38 38 39 39 39 40 49 56 48 46 51 53 48 48 47 48 49 53 56 55 55 56 58 67 66 62 58 56 54 55 55 58 65 74 89 90 98
35 38 38 38 38 39 39 39 41 40 39 40 44 43 42 41 40 47 44 49 50 49 50 49 49 49 50 51 52 54 54 53 53 54 56 55 57 58 59 61 64 78 91
37 39 41 42 39 39 42 42 42 40 40 40 42 44 42 42 41 46 45 47 50 49 48 50 51 50 50 51 51 52 53 54 58 59 59 59 60 60 60 61 62 63 68
43 44 44 43 44 43 44 42 44 46 46 46 44 44 46 46 44 44 47 46 51 50 50 50 52 52 55 57 58 58 56 57 59 61 63 64 64 63 62 62 63 66 67

GFSGL_925_rhum_279.txt.gz
RH
68 72 71 71 74 79 80 81 78 75 69 66 69 73 74 75 72 74 74 75 75 78 81 79 74 78 78 79 82 78 77 78 80 69 68 59 63 63 53 53 55 53 55
71 70 71 74 78 79 81 77 72 67 64 64 71 73 74 74 71 75 75 72 74 78 73 77 77 73 73 68 70 78 76 78 80 80 71 65 65 68 65 55 57 66 65
72 75 75 78 83 80 77 73 67 62 60 67 72 73 75 72 68 71 68 70 68 74 75 74 79 77 71 65 66 72 73 71 74 79 78 81 77 74 70 70 66 59 63
71 76 77 83 83 82 79 67 60 58 62 68 71 73 73 71 71 68 68 68 66 63 62 67 67 67 68 68 72 72 74 76 78 80 85 87 86 80 80 71 67 66 68
71 76 77 80 85 82 70 56 58 61 66 67 70 74 73 74 70 70 70 63 70 70 65 62 58 62 66 72 78 69 68 76 84 86 91 92 88 84 80 72 64 62 71
82 86 81 81 89 78 65 60 57 59 65 71 71 73 72 70 65 72 64 63 55 65 69 65 60 62 67 82 80 73 67 70 82 86 90 97 92 88 78 72 70 67 80
95 99 100 100 90 76 68 63 61 60 64 71 72 73 72 71 66 66 69 68 68 63 62 75 68 66 63 73 70 55 43 80 79 79 82 85 90 84 78 73 71 72 74
82 82 82 85 93 92 79 67 64 62 69 72 69 73 74 72 71 73 73 71 70 70 70 64 64 60 63 60 59 56 48 68 77 77 80 81 78 90 79 75 74 84 78
88 79 93 82 73 62 83 85 71 72 74 69 72 73 72 69 69 74 76 77 77 71 66 48 58 66 65 60 62 62 54 35 57 80 76 71 70 75 79 80 75 77 76
65 59 80 62 92 90 91 89 75 73 71 74 74 73 72 69 67 71 76 79 74 65 49 60 48 42 52 63 65 64 57 42 46 45 55 63 62 59 57 59 70 71 69
82 72 73 84 77 73 82 88 84 75 74 74 74 72 71 73 67 69 68 69 63 47 36 32 29 47 58 65 66 56 51 51 51 56 56 56 50 56 51 55 64 72 62
95 92 95 96 100 100 100 86 87 77 75 75 74 74 72 72 71 69 69 68 64 44 34 32 26 46 58 56 45 43 50 52 57 62 59 55 47 60 71 62 65 74 66
95 92 83 87 92 93 92 91 82 78 77 78 75 71 64 62 63 64 66 68 70 58 41 38 40 34 37 44 46 47 48 52 56 58 53 54 52 47 61 63 70 72 60
86 80 96 97 99 97 90 86 81 79 73 69 71 68 62 62 62 59 62 65 69 73 50 43 43 45 49 50 45 40 45 50 53 58 53 50 53 52 49 53 46 43 43
91 78 74 73 83 93 88 80 70 61 58 60 60 65 68 63 50 49 55 61 64 71 64 51 49 51 51 45 44 47 48 46 47 58 59 52 51 53 51 50 49 52 50
82 80 71 73 76 87 83 80 77 72 73 73 75 76 58 59 45 42 46 49 64 71 71 64 57 59 56 53 58 56 54 52 48 51 54 61 55 54 53 54 53 54 53
88 85 58 58 74 86 78 82 83 75 67 58 72 62 51 54 58 50 52 53 57 64 69 66 64 57 60 63 69 72 71 64 62 57 50 48 56 62 65 59 57 54 52
70 75 81 83 78 67 70 80 73 69 77 84 82 76 73 71 72 61 58 60 61 62 63 65 68 75 88 95 98 100 99 91 85 77 73 66 64 59 62 64 61 57 55
66 71 70 68 68 67 66 68 71 74 79 82 84 86 87 84 83 83 82 78 80 81 90 98 100 100 100 100 100 100 100 100 100 100 99 95 91 82 73 67 66 66 68
73 75 73 74 74 73 73 74 76 76 78 78 78 83 90 93 97 94 94 96 99 98 89 100 97 90 82 96 98 94 96 99 100 97 98 100 100 100 100 100 98 94 90
73 75 73 74 72 73 75 77 81 82 82 65 59 77 81 74 72 67 62 50 55 61 58 67 70 72 72 78 72 74 76 82 80 82 82 82 89 94 94 95 98 100 100
49 45 46 49 45 46 56 72 69 64 68 63 57 50 48 47 49 48 47 45 47 50 52 53 56 57 54 52 54 55 60 58 52 51 51 52 57 62 65 70 73 80 87
37 38 39 40 39 39 40 41 40 41 43 46 59 53 44 42 42 50 48 46 47 49 48 48 48 48 49 49 49 50 50 49 50 53 54 54 55 56 59 61 65 66 76
38 38 40 42 41 42 42 41 41 40 41 43 44 43 43 44 43 44 47 46 46 49 50 49 49 49 49 50 51 52 53 53 53 56 58 57 58 59 60 61 62 63 65
40 41 42 42 43 44 44 44 44 43 42 43 43 44 44 44 44 43 42 42 43 42 45 50 52 52 54 55 56 56 56 56 58 58 60 61 61 62 63 62 61 63 64
45 43 41 42 43 43 42 42 44 43 42 41 42 41 41 42 44 46 46 48 51 51 52 54 55 58 60 62 63 63 63 64 63 61 60 62 64 65 65 67 67 66 66

GFSGL_925_rhum_285.txt.gz
RH
62 63 68 74 78 86 84 86 84 88 84 88 82 69 64 65 64 68 74 73 84 86 89 87 88 91 78 78 82 81 78 79 63 53 70 67 75 75 73 73 63 65 59
66 73 73 79 81 82 86 86 80 79 80 81 76 70 67 81 71 84 83 82 85 85 85 86 83 78 84 81 69 80 79 85 81 73 74 69 77 83 84 82 74 65 70
74 77 76 80 80 81 87 90 86 83 81 81 71 68 81 86 75 86 86 82 86 86 84 84 84 87 83 76 75 69 67 71 74 75 72 73 77 82 79 77 76 80 72
75 74 78 79 78 81 89 90 89 86 80 76 74 77 83 86 80 84 79 81 78 79 79 80 84 84 80 81 75 85 82 73 69 63 61 63 70 75 80 72 64 65 65
80 76 82 87 93 96 90 87 87 87 81 72 79 85 86 83 75 82 78 77 78 76 76 76 74 66 61 72 76 85 85 67 57 55 54 60 60 63 69 75 70 67 65
82 79 92 100 100 98 96 96 95 85 85 86 83 87 87 77 74 72 78 79 81 80 78 80 75 60 72 59 78 79 77 71 64 54 56 60 72 73 74 74 70 64 56
96 100 100 100 99 92 82 74 90 88 90 90 88 89 88 86 75 74 74 77 74 76 77 78 77 63 68 80 72 72 60 53 67 84 78 73 77 80 90 82 76 75 66
100 100 100 91 90 86 70 57 57 89 80 86 88 90 90 87 74 70 73 78 80 80 78 76 76 78 81 81 80 72 66 68 62 64 76 82 86 89 94 89 90 86 71
100 97 96 99 92 94 80 83 92 96 98 81 87 92 90 86 74 71 69 82 81 86 87 80 72 70 68 66 82 72 69 66 56 41 40 54 76 75 71 76 71 65 53
90 86 81 73 87 94 94 94 92 98 95 81 88 92 76 76 74 73 74 83 81 78 80 78 57 60 54 56 80 76 68 59 60 62 62 63 64 62 66 66 68 64 57
86 92 98 99 98 99 100 97 95 99 100 90 91 90 84 80 75 72 74 83 70 69 56 44 46 34 34 49 61 76 68 57 61 66 62 58 61 60 59 67 72 71 62
89 98 99 96 99 97 98 98 98 100 100 99 100 93 94 91 85 74 74 76 71 72 59 45 35 28 36 46 56 54 48 49 59 58 59 58 56 54 54 70 96 89 73
84 88 90 96 96 97 99 99 100 100 100 100 100 99 100 93 86 78 72 73 75 78 76 59 38 38 36 40 41 44 48 61 56 55 55 57 59 59 58 57 86 95 96
89 91 98 99 100 99 98 99 97 99 100 100 99 89 84 78 79 74 67 70 73 79 83 79 71 48 47 51 49 59 62 59 61 56 54 56 63 67 57 58 54 54 56
83 82 98 100 99 98 98 97 94 81 78 76 75 73 84 80 72 67 56 55 67 81 85 92 84 75 64 62 64 66 65 67 66 64 64 59 57 63 63 58 60 55 54
92 90 90 83 91 99 96 92 93 93 89 84 80 81 86 71 68 54 52 51 55 64 84 85 81 79 73 69 67 67 67 73 77 79 74 68 60 57 58 61 63 58 52
81 76 71 71 76 74 81 85 88 88 86 85 85 71 73 75 72 69 61 60 60 65 81 84 75 71 72 76 86 98 96 100 99 95 88 81 77 72 71 64 57 59 55
85 70 67 64 77 86 94 98 98 98 98 99 90 85 83 82 82 83 80 80 82 87 89 94 96 99 99 99 99 99 100 100 100 99 99 99 100 99 97 83 73 60 57
75 76 75 76 82 85 90 92 98 100 99 99 98 86 85 72 57 49 62 71 73 76 93 96 96 89 87 90 83 79 86 92 86 90 90 95 94 99 99 99 99 99 96
82 76 80 79 78 77 73 70 72 74 75 76 72 76 67 55 53 51 56 56 52 52 56 63 65 64 64 61 62 62 62 59 59 59 62 66 72 76 73 74 94 97 99
79 75 73 74 76 77 77 74 65 59 56 52 56 62 47 49 49 53 53 56 55 55 57 59 60 60 62 61 61 57 55 54 55 55 55 56 60 57 68 69 82 77 93
46 45 50 53 58 58 58 59 58 56 54 50 49 52 44 43 42 44 50 51 49 53 52 57 53 54 56 59 61 56 54 54 54 55 57 59 59 57 57 56 57 58 64
42 40 42 45 46 46 43 41 41 40 41 43 46 44 43 43 43 44 44 46 48 50 51 58 57 55 52 63 63 65 67 60 59 64 63 60 59 59 59 58 57 56 54
42 40 41 42 41 40 40 40 39 40 39 39 39 40 40 40 40 41 44 46 48 47 49 53 53 51 52 56 52 55 54 57 58 60 64 66 64 61 61 62 59 57 59
42 42 41 41 41 41 40 40 41 41 42 42 41 41 41 42 44 44 45 46 48 49 49 50 50 51 54 54 56 55 54 56 53 55 61 66 70 73 71 65 61 60 60
46 45 45 46 46 46 45 43 42 43 42 42 42 43 43 43 43 43 44 44 44 44 45 46 47 51 53 54 55 57 58 62 66 65 62 79 82 77 72 75 73 74 68

GFSGL_925_rhum_291.txt.gz
RH
47 44 50 51 54 65 59 59 63 61 70 71 77 77 72 70 63 64 63 61 61 54 54 59 63 66 52 44 44 43 44 44 42 35 38 54 59 58 53 57 58 53 53
41 45 44 48 49 50 60 58 60 66 76 79 82 81 76 72 64 69 64 50 60 62 62 65 59 53 63 60 48 56 49 56 52 50 48 48 49 54 57 59 57 40 60
41 45 49 47 51 51 49 57 57 63 75 77 81 83 80 72 66 70 68 64 63 62 63 64 60 63 63 57 60 51 42 46 46 44 45 38 40 46 48 54 54 50 49
37 42 45 50 47 48 51 56 58 65 76 81 79 80 81 74 64 67 68 68 63 62 63 64 62 64 63 63 58 60 60 62 45 47 36 34 36 39 47 46 43 46 44
45 48 49 55 55 53 55 59 62 74 81 85 86 84 80 74 60 64 64 65 65 62 62 65 63 64 63 62 58 64 70 54 40 33 30 30 33 46 45 43 46 42 42
57 58 58 63 65 67 69 70 79 74 71 81 83 83 84 74 55 54 63 59 63 65 64 66 65 65 62 54 43 40 62 60 58 47 40 45 48 52 45 53 49 44 44
83 89 92 95 98 91 94 91 87 78 78 79 80 87 85 82 68 54 57 58 59 63 65 64 61 46 61 70 72 65 48 48 48 61 61 56 60 56 64 62 55 69 56
98 99 98 99 99 98 92 90 92 91 79 85 80 82 85 85 72 64 62 57 64 62 64 64 63 59 58 62 60 70 64 68 61 66 58 50 48 62 72 66 68 68 62
96 99 95 94 96 94 91 86 80 83 83 81 76 82 90 88 77 78 75 72 64 66 68 66 65 60 60 62 68 64 59 54 48 48 44 47 42 30 31 54 51 46 42
88 89 88 85 81 74 80 84 84 82 80 80 84 84 87 90 85 81 75 66 69 69 67 68 64 60 59 62 63 64 58 54 50 49 55 56 56 56 58 55 46 46 40
81 78 76 80 73 79 84 85 90 89 90 86 85 92 87 90 95 85 78 93 86 86 72 55 45 45 36 48 56 63 58 59 55 50 49 43 41 45 47 56 58 57 51
74 76 79 84 82 83 84 94 99 93 95 97 99 100 100 100 99 94 88 92 82 80 76 60 62 63 38 26 37 52 60 49 46 42 40 38 39 41 41 45 54 66 67
77 83 81 81 76 71 78 86 95 98 100 99 97 97 98 93 97 99 98 96 96 90 78 77 80 75 68 44 41 56 55 48 52 47 46 44 43 43 48 52 53 55 54
74 74 68 68 79 75 72 59 71 73 82 94 97 100 100 99 92 85 79 74 72 69 71 78 87 90 85 64 61 57 53 53 58 54 52 51 51 50 48 45 46 46 44
64 62 58 70 85 83 88 77 64 76 70 63 68 75 80 87 83 78 82 84 90 91 90 85 91 99 95 86 76 66 65 66 65 66 61 63 63 59 54 47 45 47 50
53 53 60 61 68 59 64 77 88 86 75 77 88 92 88 94 91 89 91 92 85 74 87 86 80 86 91 91 88 82 77 70 79 84 81 81 82 83 81 71 65 57 52
54 55 50 55 53 64 64 66 72 89 82 83 83 78 79 80 78 75 78 79 77 85 88 91 90 80 74 74 79 84 87 92 91 89 89 85 83 81 81 77 75 73 72
62 67 64 64 72 70 80 80 74 74 70 69 56 45 42 42 51 70 75 84 91 85 88 85 86 88 88 90 94 93 89 88 81 75 74 73 70 68 69 71 75 71 73
57 61 63 64 56 57 62 67 64 65 58 58 67 62 48 46 45 41 43 50 38 36 38 42 44 44 46 53 51 51 52 50 47 49 46 42 42 42 42 43 44 50 56
60 63 60 58 56 55 52 45 40 38 37 39 38 38 32 38 35 33 36 39 37 36 39 39 42 44 45 48 48 46 45 42 41 41 41 42 42 42 41 41 40 41 42
51 54 55 49 46 42 35 32 30 28 27 28 33 36 29 40 31 32 34 36 37 38 39 41 43 42 41 40 42 42 41 39 39 39 39 39 40 41 40 40 40 40 39
32 30 28 24 24 23 24 24 25 26 27 28 27 37 31 34 28 29 31 32 33 35 36 38 39 39 39 40 40 40 39 39 40 42 46 49 48 46 47 46 45 44 43
20 20 24 26 27 28 26 26 26 25 25 26 26 27 28 29 30 31 32 32 33 34 34 35 35 35 35 37 39 40 42 44 44 46 46 48 50 49 47 49 51 52 52
24 24 26 27 26 25 26 27 27 30 30 28 29 29 30 30 29 30 31 32 33 34 34 35 37 38 41 42 44 46 46 46 46 50 50 52 51 50 51 52 53 52 52
26 27 28 30 30 30 30 29 29 30 30 30 29 30 30 30 30 31 33 33 34 36 37 40 39 40 40 42 42 43 47 48 49 52 53 57 58 56 55 56 55 58 55
29 30 31 31 30 31 31 31 32 32 31 31 31 30 32 32 32 34 34 40 47 50 46 46 43 43 44 45 47 49 50 52 56 58 59 61 57 57 59 62 64 62 59